{"data":{"norad_id":62831,"epoch":"2026-05-24T12:45:34.981632Z","epoch_age_seconds":114918,"freshness":"FRESH","line1":"1 62831U 25019C   26144.53165488  .00194793  00000+0  14827-2 0  9990","line2":"2 62831  43.0014 209.2879 0002273 274.2719  85.7889 15.70896438 75803","mean_motion":15.70896438,"eccentricity":0.0002273,"inclination_deg":43.0014,"raan_deg":209.2879,"arg_perigee_deg":274.2719,"mean_anomaly_deg":85.7889,"bstar":0.0014827,"rev_number":7580,"period_min":91.667405003053,"perigee_km":354.80301082872,"apogee_km":357.86450123441,"semimajor_km":6734.4707560316,"source":"CELESTRAK","updated_at":"2026-05-25T13:38:19.778212Z"}}